Location: Jabiru
(12.6667°S, 132.8333°E)
Time: 04:04:01
(UTC+09:30)

N. Korean satellite - Visible Passes

Search period start: 17 June 2021 00:00
Search period end: 27 June 2021 00:00
Orbit: 450 x 500 km, 97.2° (Epoch: 15 June)

Date Brightness Start Highest point End Pass type
(mag) Time Alt. Az. Time Alt. Az. Time Alt. Az.
17 Jun 9.5 04:41:21 10° ENE 04:43:13 14° ESE 04:43:45 13° ESE visible
17 Jun 8.2 06:13:41 10° NW 06:16:12 18° W 06:17:55 13° WSW visible
18 Jun 6.8 05:45:25 10° N 05:48:56 48° W 05:50:21 31° SW visible
19 Jun 7.2 05:18:09 10° NNE 05:21:45 55° ESE 05:22:47 39° SSE visible
20 Jun 9.0 04:51:51 10° NE 04:54:35 20° ESE 04:55:13 19° ESE visible
20 Jun 8.7 06:26:16 10° WNW 06:27:39 12° W 06:29:01 10° WSW visible
21 Jun 7.4 05:57:06 10° NNW 06:00:22 31° W 06:01:48 23° WSW visible
22 Jun 6.5 05:29:28 10° NNE 05:33:07 89° ESE 05:34:13 44° S visible
23 Jun 8.3 05:02:41 10° NE 05:05:56 30° ESE 05:06:38 28° SE visible
24 Jun 9.7 04:37:28 10° E 04:38:47 12° ESE 04:39:02 12° ESE visible
24 Jun 8.0 06:08:58 10° NNW 06:11:45 20° W 06:13:11 17° WSW visible
25 Jun 6.6 05:40:53 10° N 05:44:29 57° W 05:45:36 38° SW visible
26 Jun 7.5 05:13:43 10° NNE 05:17:15 46° ESE 05:17:59 40° SE visible
